C2C in a Day 2018

#NameBibCatClub/TeamTime
Full
1Neil Eaton313M50Albarosa cc8:41:10Finish
2Sam Green417MAlbarosa cc8:45:50Finish
3Rob Watson1139MAlbarosa cc8:52:34Finish
4Stuart Marshall678M40Albarosa cc8:55:39Finish
5David Cocker199M40Wroot Velo9:08:02Finish
6Dieter Booth100M50pinheedfromzim9:19:02Finish
7Rob Hight484M9:19:23Finish
8Neil Wilks1180MKnutsford Tri Club9:21:44Finish
9Andy Jackson555M50Corley Cycles9:28:33Finish
10Mark Lee640M40Albarosa cc9:29:24Finish
11Anthony Cooke213M40Albarosa cc9:32:38Finish
12Simon Dowson294M409:35:17Finish
13Ben Lambert624M T1's on Cycling9:41:10Finish
14Greig Milsom725M409:41:48Finish
15Simon Davies262M40Corley Cycles9:42:14Finish
16Adrian Cash161M40Full Gas Cycling9:48:36Finish
17Steven Fisher348M40ravensthorpe cc9:51:13Finish
18Paul Lee639M409:51:54Finish
19Simon Moore736M409:52:34Finish
20Chris Edgley316M409:52:37Finish
21Tony Fowler363M409:53:43Finish
22Sam Miller721M40PPPs Axbridge9:53:50Finish
23Nick Walrond1119M40PPPs Axbridge9:54:03Finish
24Paul James556MFull Gas Cycling9:54:41Finish
25David Parkin810M9:54:52Finish
26Andrew Cresswell242M409:56:58Finish
27Carl Price860M609:58:28Finish
28Andy Caldwell154M50Big Test Icycles9:58:39Finish
29Alan Coldray203M40Corley Cycles9:59:22Finish
30Stuart Robertson899M50Sire cycles10:06:31Finish
31Frans Frison368M4010:10:16Finish
32Gary Smith986M50Coventry Triathletes10:11:22Finish
33Mark Pickering838M5010:11:26Finish
34Philip Corley220M60Corley Cycles10:12:34Finish
35Simon Howes529M50Corley Cycles10:12:46Finish
36Stuart Staples1012M40Corley Cycles10:12:47Finish
37Paddy Jones583M5010:13:24Finish
38Steve Laughlin630M50West Cumbria Velo Club10:15:06Finish
39Richard Edmondson317M501761mtb10:15:08Finish
40Iain Gray410M40Honister 9210:15:09Finish
41Dave Curry252M5010:15:11Finish
42Nick Boydell107MThe MAMILs10:16:08Finish
43Gary Thompson1075M50Albarosa cc10:16:47Finish
44Damien Dear273MCoventry Triathletes10:18:05Finish
45Mark Baylis57M50Port Sunlight Wheelers10:18:23Finish
46Duncan Bruce128M4010:19:26Finish
47Richard Stephenson1019M40Wroot Velo 10:24:38Finish
48Paul Otoole794M40Albarosa cc10:25:39Finish
49Mark Lunham669M40The MAMILs10:25:51Finish
50Adrian Ogden784M50Skipwith Spinners10:25:54Finish
51Paul Furnell370M4010:27:17Finish
52Iain Stewart1026M60Richardsons10:30:02Finish
53Rus Porter851M40Retrop Maet10:31:16Finish
54Brad Porter850M40Retrop Maet10:31:30Finish
55Richard Cook212M4010:31:35Finish
56Ben Birtles83M40Humber Triathletes 10:33:04Finish
57Christian Whittaker1171MKingswood Cycle Club10:40:13Finish
58Harry Bursey148M50HBR 10:41:14Finish
59Mike Stacey1005M5010:41:14Finish
60David Harness448M40Teamtnuc10:41:17Finish
61Graham Hilton491M5010:42:00Finish
62Christopher Wayman1142M10:42:30Finish
63Andy Ho496M10:42:34Finish
64Paul Tuson1096M5010:44:06Finish
65Thomas Parsons816MB&DCC10:45:54Finish
66Haydn Wilson1196M50Albarosa cc10:46:00Finish
67Steve Taylor1049M4010:47:54Finish
68Doug Rowe913M40Herrington10:48:38Finish
69Stephen Prescott857M40Rolling Reptiles10:48:57Finish
70Andy Jones586M4010:49:01Finish
71Chris Gaffiney372M10:53:48Finish
72Matthew Shaw948M10:56:00Finish
73Lee Farmer333M10:56:02Finish
74Gary Hides481MWick Tri10:56:04Finish
75James Hewitt480MEvo Triathlon Team10:56:24Finish
76Joel Kirkwood618M40EDS Bikes10:58:50Finish
77Paul Steckler1016M40PPPs Axbridge10:59:50Finish
78Chris Lukins668M50PPPs Axbridge10:59:54Finish
79Ryan Scantlebury930M50PPPs Axbridge10:59:55Finish
80Chris Baker38M4011:00:08Finish
81Andrew Veitch1100M50Tugboat11:01:18Finish
82Chris Bettam75M40EDS Bikes11:01:55Finish
83Scott Smith985MEDS Bikes11:02:17Finish
84Ben Joynson594MEDS Bikes11:02:26Finish
85Richard Styrin1036M4011:02:48Finish
86Matthew Baird35M40Arriva Wheelers11:03:16Finish
87Darren Wood1205M4011:03:54Finish
88Carl Beckett62M40Corley Cycles11:04:39Finish
89Paul Kempster607M40Corley Cycles11:05:17Finish
90Philip Birbeck79M50Corley Cycles11:05:20Finish
91Malc Pearce821M5011:05:41Finish
92Andrew Flint356M4011:05:42Finish
93David Dent276M5011:05:44Finish
94Carl Woolley1210M40GE11:06:29Finish
95Martin Plumbe844M40GE11:06:41Finish
96Dan Broughton120M4011:07:37Finish
97Nick Thorne1077M4011:08:37Finish
98Liam Mitchell728MBarnet Velo Club11:10:17Finish
99Jonathan Lampard625M5011:11:33Finish
100Chris Clinch194M50 T1's on Cycling11:15:26Finish
101Eddie Winthorpe1202M40Tandem Temporarily11:15:35Finish
102Darren Ostle793M40Corley Cycles11:15:37Finish
103Andrew Bogges95M50GE11:15:51Finish
104Simon Phillips835MTeam CF11:16:03Finish
105Gary Jones588M50GE11:16:09Finish
106Mark Bullivant135M5011:16:12Finish
107Jonny Baron50MJonny Baron11:19:53Finish
108Peter Pearson822MMark n Pete11:20:02Finish
109Mark Pearson824MMark n Pete11:20:05Finish
110Simon Waller1118M50Barnsley Road Club11:20:10Finish
111Mervyn Chapman177M40Barnsley Road Club11:20:15Finish
112Phil Hinchliffe492M40Barnsley Road Club11:20:18Finish
113Rob Earle312M11:21:04Finish
114Thomas Jones590M T1's on Cycling11:22:38Finish
115Philip Hill485M5011:23:58Finish
116Kevin Moment731M4011:24:12Finish
117Simon Burnley146M40Kingfishers Tri Club11:24:37Finish
118Christopher Duck300M40Duck construction11:24:39Finish
119Jonathan Smith990M40Albarosa cc11:26:44Finish
120Les Rowley914M50Albarosa cc11:27:40Finish
121Euan Campbell158M11:28:14Finish
122Jonathan Emery324MAlbarosa cc11:28:49Finish
123Tim Joy593M11:29:07Finish
124Russell Hsll532MCoventry Triathletes11:29:19Finish
125Russell Black87M4011:31:50Finish
126Andrew Clitheroe196M11:32:08Finish
127John Keegan595MKnutsford Tri Club11:33:06Finish
128Karl Woolfenden1209M50KTC11:33:08Finish
129Dave Gaskell380M40KTC11:33:35Finish
130Hans Stiles1027M40Arriva Wheelers11:34:07Finish
131Lee Horseman522M4011:35:36Finish
132Mark Jewell569M6011:35:39Finish
133Kenneth Brown124M60VC Cumbria11:36:26Finish
134Steven Walsh1121M4011:36:58Finish
135Edward Milbourn716M40Coventry Triathletes11:39:39Finish
136Jason Newman770M4011:41:43Finish
137Sean Devlin279M40Knaresborough CC11:42:30Finish
138Richard Dearing274M11:43:22Finish
139Keith Harrison456M50Vc Cumbria11:44:07Finish
140Mark Lonsdale664M4011:44:41Finish
141Nathan Wharton1160MFull Gas Cycling11:45:14Finish
142Alec Birch80MFull Gas Cycling11:45:33Finish
143Richard Sorby997MFull Gas Cycling11:45:34Finish
144Andy Pugh862M5011:45:53Finish
145Derek Laidler622M5011:45:55Finish
146Damian Hood513M4011:46:16Finish
147Lee Barnett49M4011:46:39Finish
148Matt Alford11M11:46:41Finish
149David Lighten649M11:46:49Finish
150Jack Parkes808MWhitby Wheelers11:48:27Finish
151Nigel Parkes807M40Whitby Wheelers11:48:34Finish
152Derek Goode402M4011:49:20Finish
153Jason Petillo832M40Haywood road club11:49:20Finish
154Paul Crookes244M40Paul Crookes11:49:34Finish
155Alexander Scott935MAlbarosa cc11:49:58Finish
156Stuart Knaggs620M4011:50:45Finish
157Pete Harker446M11:50:55Finish
158John Dent277MBlacko Cycling Club11:51:16Finish
159Ben Tucker1092M11:51:17Finish
160Geoff Preston858M6011:51:29Finish
161Dean Taylor1059M50Allen Valley Velo11:51:29Finish
162Mark Graham407M4011:51:31Finish
163Thomas Bowness105M11:51:40Finish
164Daniel Allen15MTeddy / steve11:52:41Finish
165Peter Ford359M50Knutsford Tri Club11:52:42Finish
166Michael Harulow460MBlacko Cycling Club11:52:48Finish
167John Moran739M4011:53:12Finish
168Gareth Bann46MBlacko Cycling Club11:53:32Finish
169Chris Platt843MBlacko Cycling Club11:53:42Finish
170Chris Tarpey1045M5011:53:46Finish
171Stuart Middlecoate714M40Fuzzy Xpo Cycling11:53:51Finish
172Simon Purdon865M5011:53:52Finish
173Paul Teece1062M4011:54:04Finish
174Iain Jennison567M40Back Windeze Rollers11:54:11Finish
175Mike Chapman176M40Team Inspire11:55:02Finish
176Lee Hartill459MTeam Inspire11:55:07Finish
177Andy Todd1085MTeam Inspire 11:55:09Finish
178Tony Birch-James81M40Team Inspire11:55:10Finish
179Grahame Megilley709M4011:56:00Finish
180Paul Marsden677M5011:56:10Finish
181James Dent278MBlacko Cycling Club11:57:12Finish
182Adrian Taylor1047M5011:57:46Finish
183Alan Holyoak512M5011:57:51Finish
184Ian Mortlock745M50west suffolk wheelers11:58:16Finish
185Darren Aldous9M40West Suffolk wheelers11:58:18Finish
186Tom Phillipson836M4011:58:25Finish
187Paul Hopper519MFuzzy Xpo Cycling11:58:51Finish
188Paul Scaife929M5011:58:51Finish
189Gary Lofts658M40Fuzzy Xpo Cycling11:58:58Finish
190Michael Morrell741M4011:59:46Finish
191Andrew Coulson226M4012:00:02Finish
192Justin Parker804M12:00:08Finish
193Heath Speck1002M4012:00:09Finish
194Matt McNeil703M4012:00:17Finish
195Anthony Kitching619M5012:02:01Finish
196Steve Morris743M50Arriva Wheelers12:02:46Finish
197Stefan Lawrence632MLincoln Tri12:02:48Finish
198Steven Paley802M40Lincoln Tri12:02:49Finish
199Iain Hamilton438M40Lincoln Tri12:02:50Finish
200Alan Shepherd955M5012:02:57Finish
201Phil Harper452MHarperSmith12:03:45Finish
202Alex Harper451MHarperSmith12:03:47Finish
203John McDonald694M40Fuzzy Xpo Cycling12:04:12Finish
204Thomas Allen14MKnottingley Velo12:04:15Finish
205Barry Maskell681M12:04:24Finish
206Richard Arden25M40B&DCC12:05:21Finish
207Colin Harper449M5012:06:55Finish
208Ben Wedgwood1153M5012:07:31Finish
209Simon McAllister687M50ISi12:07:38Finish
210Jonathan Goulding406M5012:07:40Finish
211Andrew Howarth525M40chester tri12:07:41Finish
212Paul Dickinson282M40Jakarat12:07:59Finish
213Graham Coulier225M5012:08:04Finish
214Paul Coulier224M12:08:10Finish
215Alan Jennison566M4012:08:11Finish
216Andrew Woodhead1206MChaparones12:08:53Finish
217Gary Cooper217M4012:09:22Finish
218Paul Salmon924M4012:09:22Finish
219Leigh Taylor1060MManilla Cycling12:09:26Finish
220Jon Foster362MManilla Cycling12:09:34Finish
221David Wilcock1174Mmanilla cycling12:09:37Finish
222Keith Clarke190M50Braveheart12:09:40Finish
223Neil Shelmerdine952M5012:10:00Finish
224Robert Williams1189M50Team me12:10:10Finish
225Russell Evans329M40Gears N Beers12:10:34Finish
226Darren Sworn1043M40Gears & Beers12:10:40Finish
227Paul Goodlass403M4012:11:05Finish
228Ben Ham435MFuzzy Xpo Cycling12:12:09Finish
229Gary Johnson576M40Fuzzy Xpo Cycling12:12:15Finish
230Stephen Whitehead1167M40Richardsons12:12:27Finish
231Trevor Walsh1120M4012:12:38Finish
232Mark Webster1149M12:13:44Finish
233Leon Hayward467M40Hadleigh Hares12:14:05Finish
234Peter Cobb197M5012:14:15Finish
235Stephen Spall1000M5012:14:26Finish
236John Robb896M50Chester Triathlon Club12:14:30Finish
237Simon Greenwood419M5012:14:31Finish
238Steven Milicia719M40Bicester Millennium CC12:14:51Finish
239Michael Shipley956M4012:14:56Finish
240Nick Hall433M4012:15:19Finish
241Matthew Kirk613M5012:15:19Finish
242Ian Marshall679M50Bicester Millennium CC12:15:36Finish
243Paul Mabley671M40Bicester Millennium CC12:15:42Finish
244Terence Wiltshire1198M5012:15:44Finish
245Neil Ramsay868M5012:15:46Finish
246Paul French367M40Bicester Millennium CC12:15:53Finish
247Jeremy Cross247M50Bicester Millennium CC12:15:54Finish
248Phil Ross909M40Bicester Millennium CC12:15:57Finish
249Martin Gilding389M12:16:57Finish
250Matt Rice887M40Simperley Avatars12:17:13Finish
251Andy Fardon332M5012:17:15Finish
252Dave Aspinall27MTeam CCC12:17:23Finish
253Jacob Skinner969M40Brighton Excelsior Cycle Club12:18:56Finish
254David Harper450M4012:19:01Finish
255Simon Pack800M40Chaparones12:19:02Finish
256Jake Hayward470MHadleigh Hares12:19:34Finish
257Paul Wheller1163M40Lindfield Warriors12:19:57Finish
258Adam Stone1031M50Lindfield Warriors12:20:03Finish
259Neil McQue705M50McQue12:20:16Finish
260James Atkiss29M4012:20:18Finish
261Darren Vickers1103M4012:20:18Finish
262Dean McQue704M60Team McQue12:20:23Finish
263Darren Coupland229M40Fuzzy Xpo Cycling12:20:25Finish
264John Kirk614M40Fuzzy Xpo Cycling12:20:37Finish
265Martin Hopper518M50Fuzzy Xpo Cycling12:20:41Finish
266Alan Redman879M40Brighton Excelsior Cycle Club12:20:45Finish
267Haydn Maughan685M4012:20:46Finish
268Ian Winn1200M50Fuzzy Xpo Cycling12:20:53Finish
269Mark Muxlow759M40Fuzzy Xpo Cycling12:21:08Finish
270Terence Hopper517MFuzzy Xpo Cycling12:21:09Finish
271Tim Guilfoyle423M50Ambleside Velo12:21:45Finish
272Mark Brown121M50TeamTandem12:22:10Finish
273Dan Hawes462M40Brighton Excelsior Cycle Club12:23:24Finish
274Alan Coom214MBrighton Excelsior Cycle Club12:23:36Finish
275Nick Holland502MManor Misfits12:23:37Finish
276James Meadows706MBrighton Excelsior Cycle Club12:23:57Finish
277Paul Garton379MEast Leake Velos12:24:57Finish
278Chris Watson1138MEDS Bikes12:24:59Finish
279Mark Potter852M40Brighton Excelsior Cycle Club12:25:13Finish
280Richard Hill487M4012:25:33Finish
281Richard Nunn779M50Brighton Excelsior Cycle Club12:25:44Finish
282Matthew Whitehead1166MBlacko Cycling Club12:25:56Finish
283Eoghan Given397MBlacko Cycling Club12:26:03Finish
284Richard Marjoram676M50Brighton Excelsior Cycle Club12:26:08Finish
285Michael Williams1184M4012:26:18Finish
286Nigel Hayward468M5012:26:21Finish
287Dave Twaddle1097M4012:28:16Finish
288Ade Brown126M6012:29:24Finish
289Richard Neal765M40BCH PICU12:31:43Finish
290Barney Scholefield931M40BCH PICU12:31:49Finish
291Jeff Martin680M40BCH PICU12:31:56Finish
292Nathan Adams4M12:32:14Finish
293Nicholas Dray298M4012:32:14Finish
294Richard Kelley598M4012:32:19Finish
295Jonathan Snook994M40Team Snook12:32:20Finish
296Neil Gipson396M50Gippos12:32:55Finish
297Luke Gipson395MGippos 12:32:57Finish
298Jamie Davis266M12:33:36Finish
299Steve Brooks119M4012:33:49Finish
300Ed English326M40Brighton Excelsior Cycle Club12:33:53Finish
301Lee Barber47M12:33:56Finish
302Richard Baldwin39M12:34:03Finish
303Matthew Hinz494M12:34:03Finish
304Paul Moore738M40Fleet Velo12:34:06Finish
305Peter Greenacre418M5012:34:16Finish
306Scott Robertson900M4012:34:25Finish
307Chris Watson1136M4012:34:28Finish
308Giles Orton792M50GO PJ12:35:27Finish
309Philip Jones584M50GO PJ12:35:35Finish
310Andrew Chadwick167M5012:35:42Finish
311Liam Hawes463MBrighton Excelsior Cycle Club12:36:31Finish
312Marcus Ford360MKnutsford Tri Club12:37:02Finish
313Gordon Conway210MKnutsford Tri Club12:37:03Finish
314David Hill486M4012:37:03Finish
315Mari Jonkers591M5012:37:08Finish
316Richard Poole846M4012:37:13Finish
317Charlie Paterson818M40Wheezer12:37:14Finish
318Andy Hill488M12:37:18Finish
319Mark Williams1185M4012:37:27Finish
320Simon Read876M12:37:31Finish
321Justin Taylor1054M4012:37:32Finish
322Andrew Greaves412M12:37:33Finish
323Mark Snutch996M12:37:38Finish
324Spencer Warren1133M4012:37:44Finish
325Glen Holmes508M50Evo Tri BJ PHUKers12:38:44Finish
326Gavin Stpehebs1033M4012:38:46Finish
327Mark Bartlett52MHadleigh Hares12:39:37Finish
328Jonathan Hand441M5012:39:40Finish
329Richard Cowley233M50Hadleigh hares12:39:48Finish
330Rodney Owens797M40Team Owens12:39:59Finish
331Steve Bowen102M60Hadleigh Hares AC12:40:11Finish
332Shaun Hunt539M4012:40:15Finish
333David Dulake303M50Hadleigh Hares12:40:18Finish
334Rich Brown123M12:40:59Finish
335Julian Turner1094M5012:41:31Finish
336Glynn Jennison568MHull city afc12:41:41Finish
337Dean Richardson888M40The Bald Flyers12:42:21Finish
338Marcus Atkinson28M50Brighton Excelsior Cycle Club12:42:22Finish
339Phillip Miles717M40The Bald Flyers12:42:22Finish
340Marcin Saczek920MKnutsford Tri Club12:42:32Finish
341Gary Bowness104M5012:45:21Finish
342Graham Read877M50Coventry Triathletes12:45:23Finish
343Nic Holdsworth498M12:45:59Finish
344Gareth Davis265M12:46:05Finish
345Niall Southwell999M5012:46:57Finish
346Phil Ball43M5012:46:58Finish
347Alex Benham70MMichaelgate Cycling Club12:46:58Finish
348Domino Domino288M50Brighton Excelsior Cycle Club12:47:03Finish
349Jonathan Hanson444M5012:47:40Finish
350Rory Black90M40Chaparones12:47:56Finish
351Jasbir Gill392M40Albarosa cc12:49:25Finish
352Mark Cook211M4012:49:44Finish
353Mike Day270M60PPPs Axbridge12:50:07Finish
354Tim Sharpe947M40OBCC12:50:09Finish
355Richard Stark1014M40OBCC12:50:34Finish
356Chris Bone98M40OBCC12:50:41Finish
357Lee Hunter540MHunter12:50:42Finish
358Simon Picking840M40 T1's on Cycling12:50:49Finish
359Andrew Curtis254M4012:51:31Finish
360Ben Chandler173M12:51:32Finish
361Rob Chandler174M12:51:37Finish
362Martin Owen796M12:52:26Finish
363Graeme Mann674M40Manns Men12:52:32Finish
364Daniel Welch1155M12:52:35Finish
365Simon Ball40M40Michaelgate Cycling Club12:53:15Finish
366David Alexander10M40 T1's on Cycling12:53:23Finish
367David Murphy755M12:53:28Finish
368Gareth Roberts898M4012:53:29Finish
369Michael Windsor1199M40Team Oggy12:54:18Finish
370Ian Ware1130M5012:54:21Finish
371Darren Higginson482M50Corley Cycles12:55:21Finish
372Nick Allison19M40Pegasus Explorers12:57:27Finish
373Paul Nevin768M4012:59:22Finish
374Lee Coleman207M4012:59:27Finish
375Joshua Smith988M50Kingswood Cycle Club12:59:29Finish
376Mark Gilmour394M50Kingswood Cycle Club12:59:42Finish
377Paul McDowell696M4012:59:45Finish
378Andrew Rosser910M4012:59:45Finish
379James Murray758M12:59:48Finish
380Garry Hutchinson543M50Kingswood Cycle Club12:59:51Finish
381James Poulsom854M40Kingswood Cycle Club12:59:54Finish
382Lee Rosthorn911M12:59:54Finish
383Robert Acklam1M40Kingswood Cycle Club13:00:01Finish
384Barry Duplock307MTeam TVP13:00:01Finish
385Alistair Donaldson290M40Kingswood Cycle Club13:00:06Finish
386Ian Simcock961M40Chaparones13:00:26Finish
387David Miller722M40Team X11113:00:29Finish
388Simon Fletcher354M40Whitton Velo13:00:41Finish
389Stephen Hurst542M50TeamHurst13:00:47Finish
390Craig Murphy756M40iCycle13:00:47Finish
391Michael Hurst541M60TeamHurst13:00:48Finish
392Ian McClelland690M40Whitton Velo 13:00:50Finish
393Steve Chapman178M50Kingswood Cycle Club13:00:56Finish
394Lee Grayson411M50TNT13:01:08Finish
395Paul Rushworth915M5013:01:13Finish
396Mark Simpson964M50TNT / Ride for eric13:01:14Finish
397Mark Milton726M50BILLY NO MATES13:01:57Finish
398Colin Stewart1024M4013:02:06Finish
399William Cowen231M5013:02:12Finish
400Keith Pickering837M5013:03:01Finish
401Peter Drewery299M5013:05:05Finish
402Anthony Limm650M5013:05:12Finish
403John Holmes506M5013:05:32Finish
404Peter Wrennall1212M50Evo Triathlon Team13:05:37Finish
405Ashley Dean272M4013:06:03Finish
406Ian Bell66M4013:06:07Finish
407Iain Callaghan155M4013:06:49Finish
408Daniel Scott1216M13:06:56Finish
409Robert Jennings565MBuffon Cycling13:06:59Finish
410Warren Anderson22M50Caldec13:07:04Finish
411Peter Nightingale778M50WROOT VELO13:07:39Finish
412Darren Walker1114M40Wroot velo13:07:51Finish
413Karl Hillsdon490M50Wroot Velo13:07:55Finish
414Andrew Fletcher355M50Chaparones13:08:00Finish
415Shaun Dutton310M40Chaparones13:08:16Finish
416Steven Farrer336M40B&DCC13:09:28Finish
417Danny Collins208M13:09:41Finish
418Gary Purchon864M50Gazzapur13:09:45Finish
419Paul Wilkinson1176M40Paulwilki13:10:03Finish
420Mark Whittenbury-Brookes1172M4013:10:07Finish
421Andy Flockton357M5013:10:31Finish
422Ben Holmes507M13:10:45Finish
423Iain Cole206M5013:11:04Finish
424Matt O'Hare786M4013:11:18Finish
425Alan Patchitt817M4013:15:24Finish
426Ian Smalley973M5013:16:10Finish
427Joe Richer889M4013:16:39Finish
428Shaun Tomlinson1086MTeam Headwind 13:16:58Finish
429Peter Willerton1181MTeam Headwind13:17:00Finish
430Miles Canning159M4013:17:03Finish
431James Miller723MFreedom Cycles Lichfield13:18:15Finish
432Thomas McGrath698M5013:18:30Finish
433Steve Roberts897M4013:18:32Finish
434Rob Stirling1028M40Corley Cycles13:18:34Finish
435David Merrill712M50Corley Cycles13:18:36Finish
436Mark Willis1191M5013:18:40Finish
437Richard Bellis69M50Corley Cycles13:18:45Finish
438Allan Jarvis560M50Corley Cycles13:18:53Finish
439Ian Shreeve957M50Coventry Triathletes13:19:07Finish
440Peter Sanderson926M40not again!13:19:15Finish
441Simon Darlington257M60GE13:20:21Finish
442Steven Brain112MFull Gas Cycling13:22:42Finish
443Greg Bennett72M40GE13:24:18Finish
444Michael Penfold827MEast West 213:24:42Finish
445Matthew Lawrence633MEast West 213:24:46Finish
446Matthew Alden8M4013:24:47Finish
447Julien Green414M40East West 213:24:55Finish
448Huw Davis264M5013:25:07Finish
449Phil Wilson1193M13:25:26Finish
450Simon Webb1146M40GE13:25:45Finish
451Martyn Bell68M40GE13:25:51Finish
452Paul Allman20M40GE13:26:09Finish
453Nigel Hind493M40nigel 13:26:19Finish
454Joe Inman547M4013:26:23Finish
455Michael Stennett1018M40Fat lad13:27:15Finish
456Graeme Holland505MCorley Cycles13:28:07Finish
457Simon Voris1106M40Corley Cycles13:28:15Finish
458Stephen Holdsworth499M5013:28:44Finish
459Dean Kemp606M13:28:48Finish
460Rob Wain1107M4013:29:18Finish
461Daniel Kelly599M40Medders pedallers13:30:22Finish
462Ian Medley708M40Medders pedallers13:30:24Finish
463Jamie Simpson963MBritish Steel13:31:14Finish
464Chris Spavin1001M40British Steel13:31:16Finish
465Sean Coffey200M40Wearside Triathlon13:31:26Finish
466Martyn Clift193M40British Steel13:31:30Finish
467Liam Buttrick150MBritish Steel13:31:38Finish
468Neil Ingall546M40British Steel13:31:48Finish
469Nigel Sullivan1037M40Evo Tri BJ PHUKers13:32:07Finish
470Wayne Kemp605MWearside Triathlon13:32:28Finish
471Richard Naish761M40Snickleways Bangers13:32:46Finish
472Ferdinando Loiacono659M40Snickleways Bangers13:32:54Finish
473Darren Rouse912M4013:33:27Finish
474Julian Bevins77M50Julian Bevins13:33:29Finish
475Andrew Aitken7M40Snickleways Bangers13:33:34Finish
476James Britton116M40Eddy Britton Crew13:33:38Finish
477James Hallgate434M40Snickleways Bangers13:33:38Finish
478Andrew Cobley198M40Snickleways Bangers13:33:49Finish
479Ash Gawthorp381M40Snickleways Bangers13:34:00Finish
480Mark Ryan918MCorley Cycles13:34:03Finish
481Iain Pybus866M4013:35:22Finish
482Shane Wolstencroft1203M40Knutsford Tri Club13:36:43Finish
483Tom Hill489M40KTC13:37:10Finish
484Karl Durham308M50Durham's Wheelers13:37:46Finish
485Ben Saville928M13:37:46Finish
486Will Morris742M13:37:47Finish
487Robin Maxwell686M40Knutsford Tri Club13:37:52Finish
488Lewis Hubbard533MKent Lads13:38:15Finish
489Richard Waudby1141MBack Home13:38:15Finish
490Sam Townshend1089MBack Home13:38:16Finish
491Greg Curtis255MKent Lads13:38:26Finish
492John Field345M5013:38:39Finish
493Tony Clish195M50Evo Tri Club13:38:40Finish
494Ian Pearson823M40Stirling Bike Club13:39:49Finish
495Craig Sibbald958M4013:39:51Finish
496Graeme Clark186M40Stirling Bike Club13:39:58Finish
497Adam Firkins347MFull Gas Cycling13:40:30Finish
498Mike Stockton1029MKnutsford tri club13:40:56Finish
499John O'Brien782M40Velodramatics 13:41:25Finish
500Dafydd Gibby384M40Velodramatics13:41:34Finish
501Phil Lewis647M5013:41:35Finish
502Gary Mason682MRoyal Racing Roots13:41:36Finish
503Peter Smith987M40GE13:42:51Finish
504Lee Harris453M40Birchfield CC13:42:52Finish
505Ian Castro162M5013:43:31Finish
506Simon Worsley1211M60Beccles Tri13:43:31Finish
507Jason Rickaby890M40Michaelgate Cycling Club13:44:38Finish
508Chris Brain111MFull Gas Cycling13:44:57Finish
509Richard Hart458M4013:45:30Finish
510Philip Tilson1083M4013:46:12Finish
511Nigel Harrison457M50Smurf13:46:15Finish
512Simon Inman548M40Smurf13:46:24Finish
513Dave Smaller971M5013:47:51Finish
514Mark Hemingway475M40Ravensthorpe C C13:48:13Finish
515Stuart Powls855M40stuart powls13:49:14Finish
516Philip Newman769M4013:49:43Finish
517Thomas Owens798M13:50:05Finish
518Jon Sinclair965M40Knutsford Tri Club13:50:15Finish
519Jamie Wood1204MEloquent Technologies13:50:29Finish
520Ian McIntyre701M40Ozone13:50:49Finish
521James Johnson571MOzone13:50:52Finish
522Daniel Coult228M13:51:33Finish
523Ian Buxton151M60Knutsford tri club13:51:41Finish
524Stephen Hewett479M6013:51:44Finish
525Rocky Mell710M13:51:48Finish
526Graham Tubby1091M4013:52:05Finish
527Sam Davies261M13:52:11Finish
528Steve Handley443M5013:52:42Finish
529Mike Watson1135M13:52:46Finish
530Andrew Orme790M4013:53:02Finish
531Peter Taylor1056M4013:53:09Finish
532Phil Nightingale777M40Yaxley Riders13:53:15Finish
533Paul Stubbs-Jefferies1035M50Knutsford tri club13:53:16Finish
534John Clarke189MYaxley Riders13:53:20Finish
535Andrew Bell64M4013:53:27Finish
536Paul Lindley651M5013:53:27Finish
537Ian Boyd106M4013:53:28Finish
538David Walker1115M50GE13:53:44Finish
539Nicholas Braybrooke113M50The Outsiders13:54:03Finish
540Leo Herbert476M13:54:24Finish
541Howard Miles718M50Richardsons13:54:42Finish
542Jim Johnson577M50Richardsons13:54:46Finish
543Kenneth Dennis275M60Richardsons13:54:57Finish
544Rich Laycock635M4013:55:12Finish
545Lee Davis268M40Richardsons13:55:20Finish
546Mark Lewis648M40Richardsons13:55:20Finish
547Allen Horrigan521M40Chaparones13:55:37Finish
548Ian Thomas1068M50Chaparones13:55:40Finish
549Steven Hudson534M13:56:23Finish
550Mark Blomfield94M13:56:24Finish
551Chris Smith976M40C2C4C13:56:28Finish
552Steve Ranson872MThe Multi Tools13:57:18Finish
553Will Craddock238MThe Multi Tools13:57:23Finish
554David Fenlon338MThe Multi Tools13:57:25Finish
555Edwin Mooney735MThe Multi Tools13:57:33Finish
556Nicholas Parr814MThe Multi Tools13:57:38Finish
557Richard Ettenfield328MThe Multi Tools13:57:56Finish
558Andrew Channing175M4013:58:08Finish
559Neil Webster1148M50Rusty Bike ClubNotts13:58:32Finish
560Mike Harlow447M60KTC13:58:36Finish
561Richard Town1088M40Catnip14:00:00Finish
562Richard Thompson1070MTeam Catnip14:00:02Finish
563David Hyde545M50Team Catnip14:00:04Finish
564Mike Halford429M6014:00:06Finish
565Thomas Webb1147MThe Multi Tools14:00:33Finish
566Edward Taylor1053M40Knutsford Tri Club14:01:17Finish
567Chris Kendall608M14:02:04Finish
568Russ Smith975M14:02:10Finish
569Phil Stevenson1022M4014:02:17Finish
570Daren Warburton1123M40Outsiders14:02:23Finish
571Brenden Potton853M14:04:24Finish
572Neill Beardsmore59M50GE14:04:32Finish
573David Middleton Egan715MKnutsford Tri Club 14:05:35Finish
574James Howcroft526MThe MAMILs14:06:53Finish
575Mark Hopkinson516MThe MAMILs14:07:09Finish
576Dave Burchill139MThe MAMILs14:07:22Finish
577Mark Taylor1061MThe MAMILs14:07:22Finish
578Peter Biggs78M40Hoddesdon Tri Club14:07:25Finish
579David Raymen874M40Hoddesdon TRI14:07:26Finish
580Marcus Rose908M14:07:32Finish
581Den Fitzpatrick351M50Hoddesdon Tri Club14:07:33Finish
582Mark Beaver61M5014:07:35Finish
583Ben Ward1125MHoddesdon Tri Club14:07:40Finish
584Paul Smith-Bullock991M50The MAMILs14:07:41Finish
585Steven Childs181M40Hoddesdon Tri Club14:07:57Finish
586Duncan Nickless774M4014:08:03Finish
587Gwynfor Williams1190M4014:08:03Finish
588Timothy Bradshaw110M4014:08:09Finish
589Harley Scotcher933MEloquent Technologies14:08:10Finish
590Scott Needham766MFlame Rouge14:08:15Finish
591Neil Godber401M40Flame Rouge14:08:17Finish
592Shaun Moulson749M14:08:22Finish
593Jeff Fidler341M50Knutsford Tri Club14:08:33Finish
594Steve Robinson903M14:08:57Finish
595Andrew Parkinson811M50Ravensthorpe C C14:10:29Finish
596Dave Sephton943M40Hadleigh Hares14:12:12Finish
597Jon Corwin222M40Hadleigh Hares 14:12:18Finish
598Tim Ryder919M50Hadleigh Hares14:12:20Finish
599Steve Cox234M50Hadleigh Hares14:12:43Finish
600Will Rogers905M14:15:08Finish
601Andrew Long660M40Team Long14:15:30Finish
602Matthew Long661MTeam Long14:15:31Finish
603Nick Lovell666M4014:15:33Finish
604Paul Howfield530M40RRP14:15:36Finish
605Steve Farmer334M5014:15:44Finish
606Kevin Soulby998M5014:15:48Finish
607Mark Parker803M40SOLO RIDER14:16:18Finish
608Paul Dibble280M40RRP14:17:32Finish
609Jim Bond97M4014:18:25Finish
610Andy Longmate662M4014:18:28Finish
611Neil Davis263M14:18:30Finish
612Ol Cave164M14:18:32Finish
613Jason Staphnill1009M40Rapid Racer Products14:18:53Finish
614Lee McDonnell695MHelp Harry Help Others14:18:57Finish
615Stephen Woodward1208M4014:19:00Finish
616Andrew Johnson574M5014:19:22Finish
617Neil Thompson1069M40Team Thompson14:19:22Finish
618Adam Leibowitz643M5014:19:32Finish
619Steve Melluish711M5014:19:32Finish
620Keith Houghton524M5014:19:41Finish
621Tim Howlett531M5014:19:50Finish
622Eric Williams1187M5014:19:51Finish
623Danny Creevy241M40Arriva Wheelers14:20:25Finish
624Angus Lawson634M5014:21:04Finish
625Justin Young1215M40Stephen Taylor Group14:21:06Finish
626Tim Lines652M4014:21:25Finish
627Edward Britton117M40Team Terrington14:22:24Finish
628David Gilbert388M4014:23:05Finish
629Andrew Robertson902M50Chaparones14:23:08Finish
630Stewart Riley893M4014:23:14Finish
631David Jordan592M5014:23:15Finish
632Gregory Wilcox1175M50Arriva Wheelers14:23:22Finish
633James Gibson387M40Smurf14:24:01Finish
634Ian Scott934M40Smurf14:24:01Finish
635Bruce Fisher350M50Smurf14:24:09Finish
636Richard Ranby869M50Smurf14:24:17Finish
637Justin Garrett378M50Smurf14:24:20Finish
638Jonathan Purcell863M40Smurf14:24:26Finish
639Marcos Sala922M40Smurf14:24:26Finish
640Paul Spedding1003M40Smurf14:24:34Finish
641Richard Snell993M40Smurf14:24:41Finish
642Paul Heather472M5014:25:02Finish
643Brendan Poole847M60JCT60014:25:43Finish
644Paul Chadwick165M4014:25:46Finish
645Daniel Priestley861M4014:26:22Finish
646Wayne Johnson572M14:27:21Finish
647Jonathan Gale375M40viking velo14:27:50Finish
648Mark Leeson642M5014:28:00Finish
649Christopher Gale374M40VVRC14:28:01Finish
650Richard Walker1116M50Smurf14:28:02Finish
651Stephen Cockerham153M50Trent Valley Road Club14:28:06Finish
652Tony Keightley597M50Viking velor14:28:09Finish
653Juian Hesp478M4014:28:16Finish
654Jon Bradbury108M4014:28:22Finish
655Kevin Smart974M50Viking Velo14:28:23Finish
656Mark Coyle236M5014:28:51Finish
657Kelvin Cowell230MYaxley Riders14:29:38Finish
658Matty McGee697M50Arriva Wheelers14:30:24Finish
659Craig Malthouse673M40Arriva Wheelers14:30:32Finish
660Stephen Allsopp21M5014:30:57Finish
661David Clapham184M5014:30:58Finish
662John Taylor1051M5014:31:18Finish
663Ben Reed880M50Stephen Taylor Group14:31:41Finish
664Stephen Taylor1058M5014:31:53Finish
665James Burgess142M14:32:18Finish
666Tom Campbell157M14:32:23Finish
667Sam Taylor1057M5014:32:25Finish
668Alistair Finlayson346M4014:32:27Finish
669Greg Hawkins464M40 T1's on Cycling14:32:33Finish
670Dave Williams1188M4014:33:11Finish
671Lee Hawksworth465M4014:34:44Finish
672Martin McCarthy689M5014:34:58Finish
673Matthew Piercy841M4014:34:58Finish
674Chris Newman771M4014:35:02Finish
675Ricky Miller720M6014:37:53Finish
676Roger Squires1004M5014:38:15Finish
677Mike Blakeman91M5014:38:17Finish
678Nick Doherty287M50Nick&Anita Tandem14:38:47Finish
679Mark Sylvester1044M40Mark Sylvester14:40:48Finish
680Ian Burdett140M4014:40:49Finish
681Andrew Stewart1025M50Hadleigh Hares 14:42:02Finish
682Stuart Webb1145M50Outsiders 14:42:15Finish
683Garry Monhan732M40Stirling Bike Club14:43:11Finish
684Archie Johnstone578M60Stirling Bike Club14:43:20Finish
685Graeme Naysmith764M50Stirling Bike Club14:43:20Finish
686Norrie Petrie833M40Stirling Bike Club14:43:22Finish
687Michael Kirkland616M14:43:31Finish
688Douglas Telfer1063M40Stirling Bike Club14:43:31Finish
689Christian Cowie232M14:43:36Finish
690Ian Roome907M14:43:39Finish
691David Mortimore744MNorthern monkeys14:43:48Finish
692Oli Rodgers904MNorthern monkeys14:43:56Finish
693John Howell-Walmsley527M5014:44:11Finish
694Richard Curtis253M14:44:39Finish
695Simon Peacock820M5014:45:06Finish
696Howard Sharkey946M14:46:04Finish
697Ajipal Singh966M40Picu cycling14:46:55Finish
698Stephen Warner1131M50Arriva Wheelers14:47:11Finish
699David Ball42M4014:47:27Finish
700John O'Rourke791M40Arriva Wheelers14:47:48Finish
701Rob Peryer831M14:49:14Finish
702Gregor Donaldson289M4014:49:31Finish
703Darren Craddock237M4014:49:38Finish
704Phil Holland503M14:49:42Finish
705Rob Wilby1173M40Knutsford Tri Club14:50:14Finish
706Greg Kelly604MThe MAMILs14:53:27Finish
707Michael Forrester361M14:53:52Finish
708Peter Weir1154M5014:55:25Finish
709Bryan Hall430M60Racing TNT/Ride 4 Eric14:55:29Finish
710Tim Wilkinson1177M40Racing TNT Ride for Eric14:55:34Finish
711David Prentice856M50TNT/Ride 4 Eric14:55:40Finish
712Steve Anderson23MKingswood Cycle Club14:56:13Finish
713Paul Anderson24M40Kingswood Cycle Club14:56:18Finish
714Karl Bullock136M40Kingswood Cycle Club14:56:27Finish
715Lee Twidale1098M40Kingswood Cycle Club14:56:28Finish
716Nigel Johnson575M60Kingswood Cycle Club14:56:34Finish
717John Walker1113M40Johnnie Walker14:56:35Finish
718Nick Cross246M40Kingswood Cycle Club14:56:41Finish
719Andrew Thacker1066MKingswood Cycle Club14:56:51Finish
720Devan Swart1040M14:57:59Finish
721Louis Petzer834M4014:58:04Finish
722Matthew Bryden-Smith132M40Maaaarsh14:58:22Finish
723Dominic McCormick693M40Maaaarsh14:58:22Finish
724Marc Shenton953M40Kellys Heroes15:00:07Finish
725Shaun McCluskey691MKelly's Heroes15:00:10Finish
726Giles Webster1151M40Snickleways Bangers15:01:32Finish
727Michael Lowther667M4015:01:37Finish
728Dougie Shaw950M5015:01:38Finish
729Bruce Kelly602M50 T1's on Cycling15:01:41Finish
730Darren Joint579M40The Joints15:02:48Finish
731Mark Joint580M40 T1's on Cycling15:02:52Finish
732Laurence Thirkettle1067M40Team Cavendish15:02:53Finish
733Mark Brown122M4015:04:13Finish
734Peter Raynor875M40Team Cavendish15:04:48Finish
735Russell Jaques559M15:06:36Finish
736Ian Jaques558M5015:06:47Finish
737Kevin Sellers941M5015:06:48Finish
738Michael Barnes48M4015:06:50Finish
739Mark Longworth663M40Maaaarsh15:08:29Finish
740Craig Elgey320M4015:10:39Finish
741Lewis Elgey321MCJA15:10:40Finish
742Lee Popplewell848M40Humber Triathletes 15:11:06Finish
743Robert Kirby612M40Team Cavendish15:11:37Finish
744Ralph Winter1201M4015:11:45Finish
745Andy Thompson1071M5015:16:29Finish
746Stephen Booker99M60JCT60015:17:03Finish
747Michael Hair427M50Maaaarsh15:17:09Finish
748Michael Flanagan353M40Maaaarsh15:17:13Finish
749Alex Scott936M40Gears 'n' Beers15:17:36Finish
750Dave White1164M50British Steel15:18:01Finish
751Andrew Clayton192M40British Steel15:18:02Finish
752Martyn Rigg892M60British Steel15:18:35Finish
753Nigel Smaller972M50British Steel15:18:45Finish
754Stephen Dale256M50British Steel.15:18:46Finish
755David Hampshire440M40British Steel15:18:47Finish
756Mark Laycock636M50EDS Bikes15:20:42Finish
757Wayne Elliott322M40EDS Bikes15:20:43Finish
758Mark Dixon284M40EDS Bikes15:21:02Finish
759Richard Kershaw610M40Hewitts15:23:42Finish
760Neil Glover399M50Nomads15:27:03Finish
761Jason Green413M40Nomads15:27:08Finish
762James Gray409MTeam Gray15:27:40Finish
763Adam Craske239M15:27:42Finish
764Tim Holland501M40Northern monkeys15:27:44Finish
765Jason Skinner968M40Northern monkeys 15:27:53Finish
766Jonathan Seager938M40JCT60015:28:01Finish
767Michael Webster1150M50JCT60015:29:04Finish
768Nigel Shaw951M50JCT60015:29:12Finish
769Martin Holmes509M50JCT60015:29:13Finish
770Rob Moon734M40JCT60015:29:14Finish
771Taras Stefanyszyn1017M50JCT60015:29:14Finish
772Iestyn Evans330M40Evo Tri BJ PHUKers15:30:27Finish
773Gary Field342M15:32:51Finish
774Alan Field344M15:32:53Finish
775Conor Tierney1081MKosovo legends15:33:08Finish
776Stuart Holland500M4015:38:28Finish
777Raymond Jackson551M5015:39:28Finish
778Matt Vick1102M15:40:16Finish
779Paul Rogers906M4015:43:43Finish
780Andrew Stanley1007M5015:44:11Finish
781Jeffrey Eccles314M50Gears 'n' Beers15:44:22Finish
782Lee Penn828M5015:48:06Finish
783Wayne Hoolihan514M15:48:15Finish
784Ross Taylor1050M15:48:23Finish
785Shaun Riordan894M5015:48:27Finish
786Liam Thorley1076MKent Lads15:48:40Finish
787Peter Jones589MKent Lads15:49:57Finish
788Shaun Dowson292M4015:49:58Finish
789James Burgess144MKent Lads15:50:05Finish
790Matthew Lloyd654MKent Lads15:50:11Finish
791Gareth Crouch249MKent Lads15:50:12Finish
792Tony Massie683M40j c cook cube store15:54:32Finish
793Paul Willoughby1192M4015:54:38Finish
794Martin Seeley-Davies940MCoventry Triathletes15:57:38Finish
795Ian Wilkinson1178M40Coventry Triathletes15:57:43Finish
796Andy Wilkinson1179M40Coventry Triathletes15:57:50Finish
797Wayne Broadbent118MCoventry Triathletes15:57:59Finish
798Andy Holohan510M4016:05:32Finish
799Vincent Mole730M5016:11:03Finish
800Francis Phil Mulvaney753M5016:11:11Finish
801Wai Kwok Chan171MFOGGE16:12:50Finish
802Steve Hamblett436M50All the gear no idea.16:15:57Finish
803Steve Simmons962M50S!mmo S!mmo16:15:58Finish
804Anthony Wheatley1161M4016:16:39Finish
805David Felton337M4016:16:46Finish
806Stephen Baker36M50Lealholm Riders16:21:51Finish
807Clive Hales428M60Gears 'n' Beers16:24:10Finish
808Simon Crouchley250M4016:31:26Finish
809Steven Jackson550M4016:31:38Finish
810Graham Lane628M5016:31:43Finish
811Jonathan Doxey296M4016:31:44Finish
812Sam Vernon1101M4016:31:47Finish
813Nigel Kelly603M50Gears 'n' Beers16:31:52Finish
814Leslie Rhodes886M50Corley Cycles16:32:20Finish
815Rob Tate1046M50Rob Tate16:43:19Finish
816Chris Hedges474M4016:44:10Finish
817Arron Crookes245M40SCUNTHORPE SRATS 16:48:39Finish
818Simon Wilson1194M40SCUNTHORPE SRATS16:48:54Finish
819Ken Metcalfe713M6016:59:05Finish
820Kevin Woodland1207M60T1's on Cycling17:13:29Finish
821Pete Black89M40Gears 'n' Beers17:13:45Finish
822Alan Thompson1074M40Gears 'n' Beers17:13:55Finish
823Scott Saddington921M40Gears 'n' Beers17:14:02Finish
824Terence Dunne306M50Wasps cycle17:15:58Finish
825Colin Horton523M50Wasps cycle17:16:05Finish
826John Chadwick170M6017:21:28Finish
827Chris Chadwick166M40Ultramadness17:22:42Finish
828Matthew Gunstone424M40Team fish 17:34:12Finish
829David Moore737MTeam Fish17:34:23Finish
830Martin Staples1010MTeam Fish17:34:23Finish
831Andy Toyne1090M5017:56:44Finish
832Andy Dines283M50Knutsford Tri Club28:50:42Finish
833Scott Pickering839M10:04:16Ingleby
834Simon Bullock137MThe MAMILs11:12:08Ingleby
Retired
1Christopher Snook995MTeam Snook9:33:17Ingleby
2Graham Leng646M60Albarosa cc10:41:16Ingleby
3Bill Hughes536M50Stephen Taylor Group11:10:28Ingleby
4David Thompson1072M40Team Thompson11:54:51Ingleby
5Andrew Chadwick169M6015:42:42Ingleby
6John Moulton750M607:04:22Tunstall
7Ian Sutcliffe1039M50Ravensthorpe C C7:17:39Tunstall
8Nigel Beal58M50Ravensthorpe C C7:18:08Tunstall
9Andrew Pitt842M40Ravensthorpe C C7:18:08Tunstall
10Giles Evenden331M7:35:44Tunstall
11John Smith983M50Ravensthorpe C C9:39:01Tunstall
12Richard Bamforth45M50Ravensthorpe C C9:39:29Tunstall
13David Pepper829M60Corley Cycles4:52:11Hardraw
14Matk Blease92M406:42:03Hardraw
15Mark Newton772M503:27:54Kendal
16Mark Connolly209M403:29:41Kendal
17Mark Mitchell729M403:29:48Kendal
18Matthew Holland504MCorley Cycles3:32:30Kendal
19Richard Kirkbride615M503:54:33Kendal
20Ronnie Neilson767MOBCC4:21:32Kendal
21Ian Taylor1055M404:59:54Kendal
22Derek Landells627M40JCT6000:00:00Start
23Ruban Field343M400:00:00Start
24Paul Wedge1152M40Stephen Taylor Group0:00:00Start
25Mark Bateman55M40OBCC0:00:00Start
 Dave Hayes466M60Bolsover and District CC-Finish